VE3VGJ Weather Reports


Display with metric or nautical units.
time (UTC)temp
F
wind
direction
speed
MPH
gust
MPH
rain 1hr
in
rain 24hr
in
rain mn
in
humidity
%
barometer
mb
20260506013513 44 206 1.0 1.0 0.00 0.08 0.08 86 1009.2
20260506013010 44 240 2.0 4.0 0.00 0.08 0.08 85 1009.3
20260506012505 44 190 2.0 2.0 0.00 0.08 0.08 84 1009.1
20260506012003 44 189 1.0 3.0 0.00 0.08 0.08 82 1009.3
20260506011500 45 193 2.0 2.0 0.00 0.08 0.08 80 1009.3
20260506010956 46 200 2.0 2.0 0.00 0.08 0.08 77 1008.9
20260506010456 47 170 0.0 0.0 0.00 0.08 0.08 73 1008.7
20260506005951 49 195 1.0 2.0 0.00 0.08 0.08 70 1008.6
20260506005449 49 45 1.0 1.0 0.00 0.08 0.08 64 1008.6
20260506004944 49 353 0.0 0.0 0.00 0.08 0.08 62 1008.4
20260506004442 50 353 0.0 0.0 0.00 0.08 0.08 59 1008.4
20260506003938 50 353 0.0 0.0 0.00 0.08 0.08 60 1008.3
20260506003435 50 353 0.0 0.0 0.00 0.08 0.08 59 1008.3
20260506002931 50 353 0.0 0.0 0.00 0.08 0.08 60 1008.2
20260506002427 50 353 0.0 0.0 0.00 0.08 0.08 60 1008.3
20260506001923 50 3 1.0 1.0 0.00 0.08 0.08 59 1008.1
20260506001420 50 0 2.0 2.0 0.00 0.08 0.08 59 1007.9
20260506000918 50 1 3.0 2.0 0.00 0.08 0.08 59 1007.8
20260506000416 50 343 1.0 1.0 0.00 0.08 0.08 59 1007.7
20260505235912 50 326 3.0 3.0 0.00 0.08 0.08 59 1007.6
20260505235410 50 21 1.0 1.0 0.00 0.08 0.08 60 1007.7
20260505234906 50 353 1.0 1.0 0.00 0.08 0.08 59 1007.5
20260505234404 50 340 1.0 1.0 0.00 0.08 0.08 60 1007.4
20260505233900 50 6 3.0 3.0 0.00 0.08 0.08 60 1007.4
20260505233358 50 349 4.0 4.0 0.00 0.08 0.08 60 1007.3
20260505232855 50 346 2.0 3.0 0.00 0.08 0.08 60 1007.4
20260505232353 50 357 2.0 3.0 0.00 0.08 0.08 60 1007.3
20260505231850 50 347 1.0 2.0 0.00 0.08 0.08 61 1007.5
20260505231347 50 343 0.0 1.0 0.00 0.08 0.08 60 1007.8
20260505230845 50 350 5.0 6.0 0.00 0.08 0.08 59 1007.6
20260505230342 50 348 2.0 2.0 0.00 0.08 0.08 61 1007.7
20260505225839 50 319 0.0 0.0 0.00 0.08 0.08 62 1007.3
20260505225336 50 351 4.0 4.0 0.00 0.08 0.08 62 1007.5
20260505224831 50 2 4.0 4.0 0.00 0.08 0.08 63 1007.6
20260505224329 50 356 0.0 0.0 0.00 0.08 0.08 66 1007.7
20260505223826 50 318 0.0 0.0 0.00 0.08 0.08 65 1007.7
20260505223323 50 328 1.0 2.0 0.00 0.08 0.08 67 1007.6
20260505222819 50 333 1.0 1.0 0.00 0.08 0.08 67 1007.4
20260505222315 50 340 2.0 2.0 0.00 0.08 0.08 67 1007.4
20260505221812 50 334 2.0 2.0 0.00 0.08 0.08 67 1007.5
20260505221309 50 320 4.0 6.0 0.00 0.08 0.08 66 1007.1
20260505220806 50 320 4.0 8.0 0.00 0.08 0.08 69 1007.2
20260505220303 50 0 2.0 3.0 0.00 0.08 0.08 68 1007.2
20260505215801 50 3 3.0 4.0 0.00 0.08 0.08 69 1007.1
20260505215258 50 356 1.0 1.0 0.00 0.08 0.08 72 1007.2
20260505214756 49 315 3.0 3.0 0.00 0.08 0.08 73 1007.2
20260505214253 49 305 1.0 1.0 0.00 0.08 0.08 75 1006.9
20260505213751 49 340 2.0 3.0 0.00 0.08 0.08 75 1007.2
20260505213248 49 338 2.0 3.0 0.00 0.08 0.08 76 1007.3
20260505212743 49 7 4.0 6.0 0.00 0.08 0.08 77 1006.9
20260505212241 49 331 2.0 2.0 0.00 0.08 0.08 77 1006.8
20260505211738 49 302 2.0 2.0 0.00 0.08 0.08 79 1007.0
20260505211235 49 274 3.0 3.0 0.00 0.08 0.08 79 1007.1
20260505210731 49 314 2.0 2.0 0.00 0.08 0.08 78 1006.9
20260505210228 49 24 4.0 7.0 0.12 0.08 0.08 78 1007.0
20260505205726 48 331 6.0 9.0 0.17 0.08 0.08 79 1006.9
20260505205224 49 265 2.0 2.0 0.17 0.06 0.06 77 1006.9
20260505204720 50 278 3.0 4.0 0.12 0.05 0.05 74 1006.8
20260505204218 50 5 7.0 8.0 0.00 0.03 0.03 74 1006.7
20260505203715 50 359 2.0 2.0 0.00 0.03 0.03 74 1006.7
20260505203212 50 299 2.0 3.0 0.07 0.03 0.03 73 1006.5
20260505202708 50 351 4.0 4.0 0.12 0.03 0.03 72 1006.6
20260505202204 51 344 1.0 1.0 0.12 0.02 0.02 71 1006.5
20260505201700 51 325 1.0 3.0 0.07 0.01 0.01 67 1006.6
20260505201159 52 333 4.0 7.0 0.00 0.00 0.00 62 1006.7
20260505200657 53 310 7.0 9.0 0.00 0.00 0.00 58 1006.0
20260505200153 54 1 7.0 11.0 0.00 0.00 0.00 55 1006.3
20260505195649 55 333 4.0 7.0 0.00 0.00 0.00 53 1005.9
20260505195146 56 318 9.0 11.0 0.00 0.00 0.00 51 1006.0
20260505194644 57 345 8.0 10.0 0.00 0.00 0.00 50 1005.7
20260505194139 57 343 4.0 8.0 0.00 0.00 0.00 51 1005.6
20260505193636 57 43 3.0 4.0 0.00 0.00 0.00 49 1005.4
20260505193133 58 310 2.0 3.0 0.00 0.00 0.00 49 1005.5
20260505192632 58 291 4.0 7.0 0.00 0.00 0.00 49 1005.5
20260505192129 58 330 3.0 4.0 0.00 0.00 0.00 49 1005.3
20260505191627 58 284 6.0 7.0 0.00 0.00 0.00 49 1005.1
20260505191125 58 335 4.0 8.0 0.00 0.00 0.00 49 1004.9
20260505190621 58 237 4.0 4.0 0.00 0.00 0.00 48 1005.0
20260505190116 57 341 4.0 7.0 0.00 0.00 0.00 49 1005.1
20260505185613 58 338 7.0 10.0 0.00 0.00 0.00 47 1005.0
20260505185109 58 291 10.0 10.0 0.00 0.00 0.00 47 1004.6
20260505184606 57 313 3.0 3.0 0.00 0.00 0.00 49 1005.0
20260505184102 58 15 1.0 3.0 0.00 0.00 0.00 49 1004.6
20260505183559 59 348 6.0 6.0 0.00 0.00 0.00 50 1004.5
20260505183057 59 340 4.0 6.0 0.00 0.00 0.00 49 1004.5
20260505182553 59 324 5.0 6.0 0.00 0.00 0.00 50 1004.6
20260505182050 59 3 4.0 6.0 0.00 0.00 0.00 50 1004.6
20260505181546 60 338 7.0 10.0 0.00 0.00 0.00 50 1004.5
20260505181044 60 334 2.0 3.0 0.00 0.00 0.00 52 1004.3
20260505180539 60 269 4.0 6.0 0.00 0.00 0.00 53 1004.4
20260505180038 62 336 4.0 4.0 0.00 0.00 0.00 51 1004.3
20260505175537 62 2 5.0 6.0 0.00 0.00 0.00 52 1004.2
20260505175035 62 334 3.0 3.0 0.00 0.00 0.00 55 1004.0
20260505174532 63 280 4.0 8.0 0.00 0.00 0.00 54 1003.9
20260505174027 62 275 5.0 7.0 0.00 0.00 0.00 56 1003.7
20260505173525 62 300 9.0 10.0 0.00 0.00 0.00 55 1003.4
20260505173021 62 263 6.0 11.0 0.00 0.00 0.00 56 1003.7
20260505172520 62 13 2.0 3.0 0.00 0.00 0.00 56 1003.4
20260505172015 61 305 3.0 4.0 0.00 0.00 0.00 57 1003.1
20260505171510 61 299 3.0 3.0 0.00 0.00 0.00 57 1003.4
20260505171008 60 261 3.0 3.0 0.00 0.00 0.00 58 1003.2
20260505170504 59 302 4.0 4.0 0.00 0.00 0.00 59 1003.4
20260505170000 59 260 6.0 9.0 0.00 0.00 0.00 60 1003.5
20260505165456 59 328 3.0 3.0 0.00 0.00 0.00 63 1003.6
20260505164951 58 317 4.0 6.0 0.00 0.00 0.00 63 1003.6
20260505164448 59 60 2.0 2.0 0.00 0.00 0.00 63 1003.7
20260505163946 59 283 6.0 7.0 0.00 0.00 0.00 63 1003.7
20260505163444 59 225 5.0 8.0 0.00 0.00 0.00 63 1003.7
20260505162944 60 269 8.0 11.0 0.00 0.00 0.00 64 1003.6
20260505162439 60 266 6.0 8.0 0.00 0.00 0.00 64 1003.5
20260505161936 60 271 7.0 8.0 0.00 0.00 0.00 64 1003.3
20260505161432 61 269 9.0 11.0 0.00 0.00 0.00 63 1003.2
20260505160930 61 231 7.0 9.0 0.00 0.00 0.00 63 1003.1
20260505160428 62 201 10.0 14.0 0.00 0.00 0.00 62 1002.7
20260505152904 63 270 7.0 7.0 0.00 0.00 0.00 61 1002.6
20260505152402 64 295 2.0 2.0 0.00 0.00 0.00 60 1002.3
20260505151901 64 293 3.0 4.0 0.00 0.00 0.00 61 1002.1
20260505151358 61 299 4.0 4.0 0.00 0.00 0.00 67 1001.8
20260505150855 60 247 5.0 6.0 0.00 0.00 0.00 67 1001.8
20260505150353 60 256 6.0 7.0 0.00 0.00 0.00 67 1002.0
20260505140323 58 236 8.0 10.0 0.00 0.00 0.00 70 1001.1
20260505130246 54 221 5.0 6.0 0.00 0.00 0.00 76 1000.6
20260505124736 53 243 7.0 9.0 0.00 0.00 0.00 76 1000.4
20260505124233 54 189 6.0 7.0 0.00 0.00 0.00 75 1000.2
20260505123729 55 230 4.0 6.0 0.00 0.00 0.00 75 1000.2
20260505123226 55 247 7.0 10.0 0.00 0.00 0.00 74 1000.1
20260505122722 56 224 5.0 7.0 0.00 0.00 0.00 74 1000.2
20260505122220 55 269 12.0 16.0 0.00 0.00 0.00 75 1000.1
20260505121716 55 251 2.0 3.0 0.00 0.00 0.00 75 1000.0
20260505121213 55 219 10.0 11.0 0.00 0.00 0.00 75 999.9
20260505120709 55 259 6.0 7.0 0.00 0.00 0.00 75 1000.1
20260505120206 55 248 8.0 9.0 0.00 0.00 0.00 75 1000.2
20260505115704 55 244 7.0 8.0 0.00 0.00 0.00 75 1000.0
20260505115203 55 239 6.0 7.0 0.00 0.00 0.00 75 1000.0
20260505114700 56 226 10.0 13.0 0.00 0.00 0.00 74 999.9
20260505114156 56 216 4.0 4.0 0.00 0.00 0.00 74 1000.1
20260505113652 55 221 10.0 13.0 0.00 0.00 0.00 75 1000.2
20260505113149 55 248 6.0 8.0 0.00 0.00 0.00 75 1000.0
20260505112645 55 263 4.0 6.0 0.00 0.00 0.00 76 999.8
20260505112143 55 258 7.0 8.0 0.00 0.00 0.00 75 999.9
20260505111642 56 216 5.0 9.0 0.00 0.00 0.00 74 999.8
20260505111139 57 222 8.0 11.0 0.00 0.00 0.00 73 999.8
20260505110635 57 273 6.0 9.0 0.00 0.00 0.00 73 999.4
20260505110133 57 206 10.0 13.0 0.00 0.00 0.00 74 999.4
20260505102108 55 235 3.0 6.0 0.00 0.00 0.00 77 999.2
20260505101607 54 223 5.0 6.0 0.00 0.00 0.00 77 999.5
20260505101102 54 234 6.0 9.0 0.00 0.00 0.00 78 999.3
20260505100559 54 229 4.0 4.0 0.00 0.00 0.00 78 999.3
20260505100056 54 236 3.0 3.0 0.00 0.00 0.00 78 999.3
20260505095552 54 230 2.0 3.0 0.00 0.00 0.00 78 999.4
20260505095049 54 223 2.0 3.0 0.00 0.00 0.00 78 999.2
20260505094545 54 235 2.0 3.0 0.00 0.00 0.00 78 999.2
20260505094041 54 236 5.0 6.0 0.00 0.00 0.00 78 999.3
20260505093538 54 205 3.0 3.0 0.00 0.00 0.00 78 999.1
20260505093036 55 208 2.0 3.0 0.00 0.00 0.00 78 999.0
20260505092533 55 238 3.0 3.0 0.00 0.00 0.00 77 999.0
20260505092031 55 231 4.0 4.0 0.00 0.00 0.00 77 999.0
20260505091528 56 231 4.0 4.0 0.00 0.00 0.00 76 999.1
20260505091026 56 219 3.0 3.0 0.00 0.00 0.00 77 999.2
20260505090524 56 236 6.0 7.0 0.00 0.00 0.00 76 998.8
20260505090021 56 208 5.0 7.0 0.00 0.00 0.00 76 999.0
20260505085519 56 236 5.0 6.0 0.00 0.00 0.00 76 998.9
20260505085017 56 257 5.0 6.0 0.00 0.00 0.00 76 998.9
20260505084515 56 243 4.0 4.0 0.00 0.00 0.00 76 999.0
20260505084013 57 224 3.0 3.0 0.00 0.00 0.00 75 998.9
20260505083510 57 242 4.0 6.0 0.00 0.00 0.00 75 999.0
20260505083006 56 225 2.0 2.0 0.00 0.00 0.00 76 999.1
20260505082502 56 218 4.0 6.0 0.00 0.00 0.00 77 999.2
20260505081959 56 237 2.0 2.0 0.00 0.00 0.00 77 999.2
20260505081455 56 271 3.0 3.0 0.00 0.00 0.00 76 999.3
20260505080952 56 238 3.0 3.0 0.00 0.00 0.00 76 999.2
20260505080448 55 246 1.0 1.0 0.00 0.00 0.00 77 999.4
20260505075944 55 266 3.0 3.0 0.00 0.00 0.00 77 999.4
20260505075441 54 278 3.0 4.0 0.00 0.00 0.00 78 999.2
20260505074938 54 227 1.0 1.0 0.00 0.00 0.00 78 999.4
20260505074436 54 241 1.0 1.0 0.00 0.00 0.00 77 999.5
20260505073932 55 247 3.0 3.0 0.00 0.00 0.00 77 999.3
20260505073430 55 254 3.0 3.0 0.00 0.00 0.00 76 999.3
20260505072927 55 260 3.0 3.0 0.00 0.00 0.00 76 999.3
20260505072423 55 257 3.0 4.0 0.00 0.00 0.00 76 999.5
20260505071919 55 265 2.0 2.0 0.00 0.00 0.00 75 999.2
20260505071415 55 268 5.0 8.0 0.00 0.00 0.00 75 999.4
20260505070914 55 230 4.0 4.0 0.00 0.00 0.00 75 999.5
20260505070410 55 208 3.0 3.0 0.00 0.00 0.00 75 999.4
20260505065905 55 247 3.0 3.0 0.00 0.00 0.00 75 999.5
20260505065402 56 233 3.0 2.0 0.00 0.00 0.00 74 999.5
20260505064859 56 240 6.0 7.0 0.00 0.00 0.00 74 999.5
20260505064356 55 225 4.0 6.0 0.00 0.00 0.00 75 999.7
20260505063855 55 221 4.0 4.0 0.00 0.00 0.00 75 999.9
20260505063355 55 227 4.0 4.0 0.00 0.00 0.00 75 999.9
20260505062852 54 235 3.0 4.0 0.00 0.00 0.00 75 1000.0
20260505062350 54 255 3.0 3.0 0.00 0.00 0.00 75 999.9
20260505061846 54 200 7.0 8.0 0.00 0.00 0.00 75 1000.1
20260505061344 54 256 5.0 7.0 0.00 0.00 0.00 75 1000.0
20260505060842 54 250 9.0 10.0 0.00 0.00 0.00 74 999.8
20260505060338 54 273 7.0 9.0 0.00 0.00 0.00 74 999.9
20260505055835 54 226 5.0 6.0 0.00 0.00 0.00 75 1000.0
20260505055330 54 248 5.0 7.0 0.00 0.00 0.00 74 1000.0
20260505054828 54 246 3.0 3.0 0.00 0.00 0.00 74 999.7
20260505054325 54 223 8.0 11.0 0.00 0.00 0.00 73 999.8
20260505053823 55 211 4.0 4.0 0.00 0.00 0.00 73 999.8
20260505053320 55 234 5.0 7.0 0.00 0.00 0.00 73 999.9
20260505052817 55 224 8.0 9.0 0.00 0.00 0.00 72 1000.2
20260505052314 55 198 5.0 6.0 0.00 0.00 0.00 72 1000.2
20260505051811 55 276 6.0 8.0 0.00 0.00 0.00 72 999.9
20260505051308 55 232 5.0 7.0 0.00 0.00 0.00 72 1000.1
20260505050806 55 244 7.0 10.0 0.00 0.00 0.00 72 1000.2
20260505050305 54 243 6.0 7.0 0.00 0.00 0.00 72 1000.3
20260505041734 57 228 4.0 4.0 0.00 0.00 0.00 64 1000.2
20260505041231 58 214 3.0 3.0 0.00 0.00 0.00 63 1000.3
20260505040729 58 212 3.0 3.0 0.00 0.00 0.00 62 1000.3
20260505040226 59 254 3.0 4.0 0.00 0.00 0.00 61 1000.2
20260505035723 59 226 4.0 4.0 0.00 0.01 0.01 61 1000.1
20260505035219 58 200 4.0 4.0 0.00 0.01 0.01 61 1000.3
20260505034716 58 252 3.0 3.0 0.00 0.01 0.01 60 1000.0
20260505034213 58 217 5.0 8.0 0.00 0.01 0.01 59 1000.4
20260505033709 57 229 4.0 8.0 0.00 0.01 0.01 58 1000.7
20260505033207 58 237 3.0 3.0 0.00 0.01 0.01 56 1000.7
20260505032705 58 231 4.0 4.0 0.00 0.01 0.01 55 1000.8
20260505032200 58 212 6.0 7.0 0.00 0.01 0.01 54 1000.8
20260505031658 59 210 3.0 3.0 0.00 0.01 0.01 53 1000.8
20260505031154 59 232 4.0 4.0 0.00 0.01 0.01 51 1000.9
20260505030651 59 231 2.0 3.0 0.00 0.01 0.01 50 1001.0
20260505030147 60 236 6.0 7.0 0.00 0.01 0.01 50 1001.0
20260505025643 60 212 4.0 4.0 0.00 0.01 0.01 49 1001.1
20260505025142 60 229 4.0 6.0 0.00 0.01 0.01 49 1001.0
20260505024639 60 236 3.0 3.0 0.00 0.01 0.01 49 1000.9
20260505024136 60 212 2.0 3.0 0.00 0.01 0.01 48 1000.9
20260505023634 60 263 2.0 2.0 0.00 0.01 0.01 48 1000.8
20260505023131 60 270 1.0 1.0 0.00 0.01 0.01 47 1000.7
20260505022628 60 241 4.0 6.0 0.00 0.01 0.01 47 1000.8
20260505022125 60 259 4.0 6.0 0.00 0.01 0.01 47 1000.7
20260505021621 60 257 4.0 6.0 0.00 0.01 0.01 46 1000.9
20260505021118 60 244 6.0 7.0 0.00 0.01 0.01 46 1000.8
20260505020614 61 216 6.0 8.0 0.00 0.01 0.01 45 1000.7
20260505020110 61 218 7.0 8.0 0.00 0.01 0.01 45 1000.8
20260505015608 60 210 4.0 6.0 0.00 0.01 0.01 46 1000.8
20260505015104 59 264 2.0 2.0 0.00 0.01 0.01 48 1000.7
20260505014601 58 212 3.0 3.0 0.00 0.01 0.01 48 1000.8
20260505014058 58 250 4.0 3.0 0.00 0.01 0.01 48 1000.7